Change the Weather History Date:

Tuesday, March 31, 2015

  Actual Average Record
Temperature  
Mean Temperature 52 °F 47 °F  
Max Temperature 67 °F 58 °F 79 °F (1986)
Min Temperature 37 °F 37 °F 18 °F (1965)
Degree Days  
Heating Degree Days 13 18  
Month to date heating degree days 762 712  
Since 1 July heating degree days 4886 4601  
Cooling Degree Days 0 0  
Month to date cooling degree days 0 2  
Year to date cooling degree days 0 2  
Growing Degree Days 2 (Base 50)    
Moisture  
Dew Point 26 °F    
Average Humidity 42    
Maximum Humidity 59    
Minimum Humidity 24    
Precipitation  
Precipitation T in 0.13 in 0.90 in (1962)
Month to date precipitation 6.19 3.65  
Year to date precipitation 10.48 9.06  
Sea Level Pressure  
Sea Level Pressure 29.82 in    
Wind  
Wind Speed 10 mph (WSW)    
Max Wind Speed 23 mph    
Max Gust Speed 34 mph    
Visibility 10 miles    
Events      
T = Trace of Precipitation, MM = Missing Value Source: NWS Daily Summary

Daily Weather History Graph

Daily Weather History Graph

Search for Another Location

Airport or City:

Trip Planner

Search our weather history database for the weather conditions in past years. The results will help you decide how hot, cold, wet, or windy it might be!

Date:

Astronomy

Mar. 31, 2015 Rise Set
Actual Time 7:05 AM EDT 7:42 PM EDT
Civil Twilight 6:38 AM EDT 8:09 PM EDT
Nautical Twilight 6:06 AM EDT 8:41 PM EDT
Astronomical Twilight 5:33 AM EDT 9:14 PM EDT
Moon 4:25 PM EDT (3/31) 5:02 AM EDT (3/31)
Length of Visible Light 13h 30m
Length of Day
12h 36m
Waxing Gibbous, 87% of the Moon is Illuminated
Mar 31
Waxing Gibbous
Apr 4
Full
Apr 11
Last Quarter
Apr 18
New
Apr 25
First Quarter

Hourly Weather History & Observations

Time (EDT) Temp. Windchill Dew Point Humidity Pressure Visibility Wind Dir Wind Speed Gust Speed Precip Events Conditions
12:53 AM 48.0 °F - 21.9 °F 36% 30.01 in 10.0 mi SW 6.9 mph - N/A   Mostly Cloudy
1:53 AM 48.0 °F - 21.9 °F 36% 30.00 in 10.0 mi SSW 5.8 mph - N/A   Overcast
2:53 AM 48.0 °F - 23.0 °F 37% 29.97 in 10.0 mi SSW 5.8 mph - N/A   Overcast
3:53 AM 48.0 °F - 23.0 °F 37% 29.94 in 10.0 mi SSW 3.5 mph - N/A   Overcast
4:53 AM 48.0 °F - 23.0 °F 37% 29.93 in 10.0 mi SSW 3.5 mph - N/A   Overcast
5:53 AM 46.0 °F 43.9 °F 25.0 °F 44% 29.90 in 10.0 mi South 4.6 mph - N/A   Overcast
6:53 AM 46.9 °F - 24.1 °F 41% 29.89 in 10.0 mi Variable 4.6 mph - N/A   Overcast
7:53 AM 48.0 °F - 23.0 °F 37% 29.86 in 10.0 mi Variable 5.8 mph - N/A   Partly Cloudy
8:53 AM 50.0 °F - 24.1 °F 36% 29.81 in 10.0 mi South 6.9 mph - N/A   Partly Cloudy
9:53 AM 53.1 °F - 23.0 °F 31% 29.78 in 10.0 mi Variable 6.9 mph 19.6 mph N/A   Overcast
10:53 AM 55.9 °F - 25.0 °F 30% 29.73 in 10.0 mi SSW 15.0 mph 23.0 mph 0.00 in   Mostly Cloudy
11:53 AM 59.0 °F - 25.0 °F 27% 29.69 in 10.0 mi SW 17.3 mph 24.2 mph N/A   Mostly Cloudy
12:53 PM 60.1 °F - 26.1 °F 27% 29.65 in 10.0 mi SW 15.0 mph 26.5 mph 0.00 in   Overcast
1:53 PM 64.9 °F - 28.0 °F 25% 29.62 in 10.0 mi WSW 13.8 mph 27.6 mph N/A   Scattered Clouds
2:13 PM 66.9 °F - 28.0 °F 23% 29.61 in 10.0 mi West 12.7 mph 31.1 mph N/A   Partly Cloudy
2:53 PM 64.9 °F - 27.0 °F 24% 29.61 in 10.0 mi West 16.1 mph 26.5 mph N/A   Mostly Cloudy
3:53 PM 64.0 °F - 26.1 °F 24% 29.62 in 9.0 mi WNW 15.0 mph 31.1 mph N/A   Mostly Cloudy
4:53 PM 61.0 °F - 30.0 °F 31% 29.66 in 10.0 mi NW 10.4 mph 26.5 mph N/A   Overcast
5:53 PM 59.0 °F - 33.1 °F 38% 29.72 in 10.0 mi NW 15.0 mph 26.5 mph N/A   Mostly Cloudy
6:53 PM 54.0 °F - 30.9 °F 41% 29.79 in 10.0 mi NNW 15.0 mph 24.2 mph N/A   Mostly Cloudy
7:53 PM 46.9 °F - 30.0 °F 52% 29.87 in 10.0 mi North 18.4 mph 25.3 mph N/A   Overcast
8:53 PM 44.1 °F 36.8 °F 28.0 °F 53% 29.93 in 10.0 mi North 16.1 mph 20.7 mph N/A   Overcast
9:53 PM 41.0 °F 34.3 °F 27.0 °F 57% 29.96 in 10.0 mi North 11.5 mph 18.4 mph N/A   Clear
10:53 PM 39.9 °F 37.8 °F 26.1 °F 58% 29.99 in 10.0 mi NW 3.5 mph - N/A   Clear
11:53 PM 39.0 °F - 26.1 °F 60% 30.01 in 10.0 mi Calm Calm - N/A   Clear